Tracking 27382 objects as of 5-Jun-2023
HD Live streaming from Space Station
objects crossing your sky now

STARLINK-30113

Track STARLINK-30113 now!
10-day predictions
STARLINK-30113 is classified as:


NORAD ID: 56291
Int'l Code: 2023-056F
Perigee: 529.0 km
Apogee: 531.4 km
Inclination: 43.0 °
Period: 95.1 minutes
Semi major axis: 6901 km
RCS: Unknown
Launch date: April 19, 2023
Source: United States (US)
Launch site: AIR FORCE EASTERN TEST RANGE (AFETR)
Your satellite tracking list
Your tracking list is empty




NASA's NSSDC Master Catalog

Two Line Element Set (TLE):
1 56291U 23056F   23155.47212128  .00002597  00000-0  15149-3 0  9998
2 56291  42.9990 298.9729 0001743 270.4846  89.5801 15.14316159  8151
Source of the keplerian elements: AFSPC